Year,Month,Day,Hour,Minute,Value (Times are PST for temperature in C)
2014,07,06,00,00,14.80
2014,07,06,00,01,14.80
2014,07,06,00,02,14.80
2014,07,06,00,03,14.80
2014,07,06,00,04,14.80
2014,07,06,00,05,14.80
2014,07,06,00,06,14.80
2014,07,06,00,07,14.80
2014,07,06,00,08,14.80
2014,07,06,00,09,14.80
2014,07,06,00,10,14.80
2014,07,06,00,11,14.80
2014,07,06,00,12,14.80
2014,07,06,00,13,14.70
2014,07,06,00,14,14.70
2014,07,06,00,15,14.70
2014,07,06,00,16,14.70
2014,07,06,00,17,14.70
2014,07,06,00,18,14.70
2014,07,06,00,19,14.80
2014,07,06,00,20,14.80
2014,07,06,00,21,14.80
2014,07,06,00,22,14.80
2014,07,06,00,23,14.80
2014,07,06,00,24,14.80
2014,07,06,00,25,14.80
2014,07,06,00,26,14.80
2014,07,06,00,27,14.80
2014,07,06,00,28,14.80
2014,07,06,00,29,14.80
2014,07,06,00,30,14.80
2014,07,06,00,31,14.80
2014,07,06,00,32,14.80
2014,07,06,00,33,14.80
2014,07,06,00,34,14.80
2014,07,06,00,35,14.80
2014,07,06,00,36,14.80
2014,07,06,00,37,14.80
2014,07,06,00,38,14.80
2014,07,06,00,39,14.80
2014,07,06,00,40,14.80
2014,07,06,00,41,14.70
2014,07,06,00,42,14.70
2014,07,06,00,43,14.70
2014,07,06,00,44,14.70
2014,07,06,00,45,14.70
2014,07,06,00,46,14.70
2014,07,06,00,47,14.70
2014,07,06,00,48,14.70
2014,07,06,00,49,14.70
2014,07,06,00,50,14.80
2014,07,06,00,51,14.80
2014,07,06,00,52,14.80
2014,07,06,00,53,14.80
2014,07,06,00,54,14.80
2014,07,06,00,55,14.80
2014,07,06,00,56,14.80
2014,07,06,00,57,14.80
2014,07,06,00,58,14.80
2014,07,06,00,59,14.80
2014,07,06,01,00,14.80
2014,07,06,01,01,14.80
2014,07,06,01,02,14.80
2014,07,06,01,03,14.80
2014,07,06,01,04,14.80
2014,07,06,01,05,14.80
2014,07,06,01,06,14.70
2014,07,06,01,07,14.70
2014,07,06,01,08,14.70
2014,07,06,01,09,14.70
2014,07,06,01,10,14.70
2014,07,06,01,11,14.70
2014,07,06,01,12,14.70
2014,07,06,01,13,14.70
2014,07,06,01,14,14.70
2014,07,06,01,15,14.70
2014,07,06,01,16,14.70
2014,07,06,01,17,14.70
2014,07,06,01,18,14.70
2014,07,06,01,19,14.70
2014,07,06,01,20,14.70
2014,07,06,01,21,14.70
2014,07,06,01,22,14.70
2014,07,06,01,23,14.70
2014,07,06,01,24,14.70
2014,07,06,01,25,14.70
2014,07,06,01,26,14.70
2014,07,06,01,27,14.70
2014,07,06,01,28,14.70
2014,07,06,01,29,14.70
2014,07,06,01,30,14.70
2014,07,06,01,31,14.70
2014,07,06,01,32,14.70
2014,07,06,01,33,14.80
2014,07,06,01,34,14.80
2014,07,06,01,35,14.80
2014,07,06,01,36,14.80
2014,07,06,01,37,14.80
2014,07,06,01,38,14.80
2014,07,06,01,39,14.80
2014,07,06,01,40,14.80
2014,07,06,01,41,14.80
2014,07,06,01,42,14.80
2014,07,06,01,43,14.80
2014,07,06,01,44,14.80
2014,07,06,01,45,14.80
2014,07,06,01,46,14.80
2014,07,06,01,47,14.80
2014,07,06,01,48,14.90
2014,07,06,01,49,14.90
2014,07,06,01,50,15.00
2014,07,06,01,51,15.00
2014,07,06,01,52,15.00
2014,07,06,01,53,15.00
2014,07,06,01,54,15.10
2014,07,06,01,55,15.10
2014,07,06,01,56,15.10
2014,07,06,01,57,15.20
2014,07,06,01,58,15.20
2014,07,06,01,59,15.20
2014,07,06,02,00,15.20
2014,07,06,02,01,15.20
2014,07,06,02,02,15.30
2014,07,06,02,03,15.20
2014,07,06,02,04,15.20
2014,07,06,02,05,15.20
2014,07,06,02,06,15.20
2014,07,06,02,07,15.20
2014,07,06,02,08,15.20
2014,07,06,02,09,15.20
2014,07,06,02,10,15.20
2014,07,06,02,11,15.20
2014,07,06,02,12,15.20
2014,07,06,02,13,15.20
2014,07,06,02,14,15.20
2014,07,06,02,15,15.20
2014,07,06,02,16,15.20
2014,07,06,02,17,15.20
2014,07,06,02,18,15.10
2014,07,06,02,19,15.10
2014,07,06,02,20,15.10
2014,07,06,02,21,15.10
2014,07,06,02,22,15.10
2014,07,06,02,23,15.20
2014,07,06,02,24,15.20
2014,07,06,02,25,15.20
2014,07,06,02,26,15.20
2014,07,06,02,27,15.20
2014,07,06,02,28,15.20
2014,07,06,02,29,15.20
2014,07,06,02,30,15.20
2014,07,06,02,31,15.20
2014,07,06,02,32,15.20
2014,07,06,02,33,15.20
2014,07,06,02,34,15.30
2014,07,06,02,35,15.30
2014,07,06,02,36,15.30
2014,07,06,02,37,15.30
2014,07,06,02,38,15.30
2014,07,06,02,39,15.30
2014,07,06,02,40,15.30
2014,07,06,02,41,15.30
2014,07,06,02,42,15.30
2014,07,06,02,43,15.30
2014,07,06,02,44,15.30
2014,07,06,02,45,15.30
2014,07,06,02,46,15.30
2014,07,06,02,47,15.30
2014,07,06,02,48,15.30
2014,07,06,02,49,15.30
2014,07,06,02,50,15.30
2014,07,06,02,51,15.30
2014,07,06,02,52,15.30
2014,07,06,02,53,15.30
2014,07,06,02,54,15.30
2014,07,06,02,55,15.30
2014,07,06,02,56,15.30
2014,07,06,02,57,15.30
2014,07,06,02,58,15.30
2014,07,06,02,59,15.30
2014,07,06,03,00,15.30
2014,07,06,03,01,15.30
2014,07,06,03,02,15.30
2014,07,06,03,03,15.30
2014,07,06,03,04,15.30
2014,07,06,03,05,15.30
2014,07,06,03,06,15.30
2014,07,06,03,07,15.30
2014,07,06,03,08,15.30
2014,07,06,03,09,15.30
2014,07,06,03,10,15.30
2014,07,06,03,11,15.30
2014,07,06,03,12,15.30
2014,07,06,03,13,15.30
2014,07,06,03,14,15.30
2014,07,06,03,15,15.30
2014,07,06,03,16,15.30
2014,07,06,03,17,15.30
2014,07,06,03,18,15.30
2014,07,06,03,19,15.30
2014,07,06,03,20,15.30
2014,07,06,03,21,15.30
2014,07,06,03,22,15.30
2014,07,06,03,23,15.30
2014,07,06,03,24,15.30
2014,07,06,03,25,15.30
2014,07,06,03,26,15.30
2014,07,06,03,27,15.30
2014,07,06,03,28,15.30
2014,07,06,03,29,15.30
2014,07,06,03,30,15.30
2014,07,06,03,31,15.30
2014,07,06,03,32,15.30
2014,07,06,03,33,15.30
2014,07,06,03,34,15.30
2014,07,06,03,35,15.30
2014,07,06,03,36,15.30
2014,07,06,03,37,15.30
2014,07,06,03,38,15.30
2014,07,06,03,39,15.30
2014,07,06,03,40,15.30
2014,07,06,03,41,15.30
2014,07,06,03,42,15.30
2014,07,06,03,43,15.30
2014,07,06,03,44,15.30
2014,07,06,03,45,15.30
2014,07,06,03,46,15.30
2014,07,06,03,47,15.20
2014,07,06,03,48,15.20
2014,07,06,03,49,15.20
2014,07,06,03,50,15.20
2014,07,06,03,51,15.20
2014,07,06,03,52,15.20
2014,07,06,03,53,15.20
2014,07,06,03,54,15.20
2014,07,06,03,55,15.20
2014,07,06,03,56,15.20
2014,07,06,03,57,15.20
2014,07,06,03,58,15.20
2014,07,06,03,59,15.10
2014,07,06,04,00,15.10
2014,07,06,04,01,15.10
2014,07,06,04,02,15.10
2014,07,06,04,03,15.10
2014,07,06,04,04,15.10
2014,07,06,04,05,15.10
2014,07,06,04,06,15.10
2014,07,06,04,07,15.10
2014,07,06,04,08,15.10
2014,07,06,04,09,15.10
2014,07,06,04,10,15.10
2014,07,06,04,11,15.10
2014,07,06,04,12,15.10
2014,07,06,04,13,15.10
2014,07,06,04,14,15.10
2014,07,06,04,15,15.10
2014,07,06,04,16,15.10
2014,07,06,04,17,15.00
2014,07,06,04,18,15.00
2014,07,06,04,19,15.00
2014,07,06,04,20,15.00
2014,07,06,04,21,15.00
2014,07,06,04,22,15.00
2014,07,06,04,23,15.00
2014,07,06,04,24,14.90
2014,07,06,04,25,14.90
2014,07,06,04,26,14.90
2014,07,06,04,27,14.90
2014,07,06,04,28,14.90
2014,07,06,04,29,14.90
2014,07,06,04,30,14.80
2014,07,06,04,31,14.80
2014,07,06,04,32,14.80
2014,07,06,04,33,14.80
2014,07,06,04,34,14.80
2014,07,06,04,35,14.80
2014,07,06,04,36,14.80
2014,07,06,04,37,14.80
2014,07,06,04,38,14.80
2014,07,06,04,39,14.80
2014,07,06,04,40,14.80
2014,07,06,04,41,14.80
2014,07,06,04,42,14.80
2014,07,06,04,43,14.80
2014,07,06,04,44,14.80
2014,07,06,04,45,14.80
2014,07,06,04,46,14.80
2014,07,06,04,47,14.80
2014,07,06,04,48,14.80
2014,07,06,04,49,14.80
2014,07,06,04,50,14.80
2014,07,06,04,51,14.80
2014,07,06,04,52,14.80
2014,07,06,04,53,14.80
2014,07,06,04,54,14.80
2014,07,06,04,55,14.80
2014,07,06,04,56,14.80
2014,07,06,04,57,14.80
2014,07,06,04,58,14.80
2014,07,06,04,59,14.80
2014,07,06,05,00,14.80
2014,07,06,05,01,14.80
2014,07,06,05,02,14.80
2014,07,06,05,03,14.80
2014,07,06,05,04,14.80
2014,07,06,05,05,14.80
2014,07,06,05,06,14.80
2014,07,06,05,07,14.80
2014,07,06,05,08,14.80
2014,07,06,05,09,14.80
2014,07,06,05,10,14.80
2014,07,06,05,11,14.80
2014,07,06,05,12,14.80
2014,07,06,05,13,14.80
2014,07,06,05,14,14.80
2014,07,06,05,15,14.80
2014,07,06,05,16,14.80
2014,07,06,05,17,14.80
2014,07,06,05,18,14.80
2014,07,06,05,19,14.70
2014,07,06,05,20,14.70
2014,07,06,05,21,14.70
2014,07,06,05,22,14.70
2014,07,06,05,23,14.70
2014,07,06,05,24,14.70
2014,07,06,05,25,14.70
2014,07,06,05,26,14.70
2014,07,06,05,27,14.70
2014,07,06,05,28,14.70
2014,07,06,05,29,14.70
2014,07,06,05,30,14.70
2014,07,06,05,31,14.70
2014,07,06,05,32,14.70
2014,07,06,05,33,14.70
2014,07,06,05,34,14.80
2014,07,06,05,35,14.80
2014,07,06,05,36,14.80
2014,07,06,05,37,14.70
2014,07,06,05,38,14.70
2014,07,06,05,39,14.70
2014,07,06,05,40,14.70
2014,07,06,05,41,14.70
2014,07,06,05,42,14.70
2014,07,06,05,43,14.70
2014,07,06,05,44,14.70
2014,07,06,05,45,14.70
2014,07,06,05,46,14.70
2014,07,06,05,47,14.70
2014,07,06,05,48,14.70
2014,07,06,05,49,14.70
2014,07,06,05,50,14.70
2014,07,06,05,51,14.70
2014,07,06,05,52,14.70
2014,07,06,05,53,14.70
2014,07,06,05,54,14.70
2014,07,06,05,55,14.70
2014,07,06,05,56,14.70
2014,07,06,05,57,14.70
2014,07,06,05,58,14.70
2014,07,06,05,59,14.70
2014,07,06,06,00,14.70
2014,07,06,06,01,14.70
2014,07,06,06,02,14.70
2014,07,06,06,03,14.70
2014,07,06,06,04,14.70
2014,07,06,06,05,14.70
2014,07,06,06,06,14.70
2014,07,06,06,07,14.70
2014,07,06,06,08,14.70
2014,07,06,06,09,14.70
2014,07,06,06,10,14.70
2014,07,06,06,11,14.70
2014,07,06,06,12,14.70
2014,07,06,06,13,14.70
2014,07,06,06,14,14.70
2014,07,06,06,15,14.70
2014,07,06,06,16,14.70
2014,07,06,06,17,14.70
2014,07,06,06,18,14.70
2014,07,06,06,19,14.70
2014,07,06,06,20,14.70
2014,07,06,06,21,14.70
2014,07,06,06,22,14.70
2014,07,06,06,23,14.70
2014,07,06,06,24,14.70
2014,07,06,06,25,14.70
2014,07,06,06,26,14.70
2014,07,06,06,27,14.70
2014,07,06,06,28,14.70
2014,07,06,06,29,14.70
2014,07,06,06,30,14.70
2014,07,06,06,31,14.70
2014,07,06,06,32,14.70
2014,07,06,06,33,14.80
2014,07,06,06,34,14.80
2014,07,06,06,35,14.80
2014,07,06,06,36,14.80
2014,07,06,06,37,14.80
2014,07,06,06,38,14.80
2014,07,06,06,39,14.80
2014,07,06,06,40,14.80
2014,07,06,06,41,14.80
2014,07,06,06,42,14.80
2014,07,06,06,43,14.80
2014,07,06,06,44,14.80
2014,07,06,06,45,14.80
2014,07,06,06,46,14.80
2014,07,06,06,47,14.80
2014,07,06,06,48,14.80
2014,07,06,06,49,14.80
2014,07,06,06,50,14.80
2014,07,06,06,51,14.80
2014,07,06,06,52,14.90
2014,07,06,06,53,14.90
2014,07,06,06,54,14.90
2014,07,06,06,55,14.90
2014,07,06,06,56,14.90
2014,07,06,06,57,14.90
2014,07,06,06,58,14.90
2014,07,06,06,59,14.90
2014,07,06,07,00,15.00
2014,07,06,07,01,15.00
2014,07,06,07,02,15.00
2014,07,06,07,03,15.10
2014,07,06,07,04,15.10
2014,07,06,07,05,15.10
2014,07,06,07,06,15.20
2014,07,06,07,07,15.20
2014,07,06,07,08,15.20
2014,07,06,07,09,15.20
2014,07,06,07,10,15.20
2014,07,06,07,11,15.20
2014,07,06,07,12,15.20
2014,07,06,07,13,15.20
2014,07,06,07,14,15.30
2014,07,06,07,15,15.30
2014,07,06,07,16,15.30
2014,07,06,07,17,15.30
2014,07,06,07,18,15.30
2014,07,06,07,19,15.30
2014,07,06,07,20,15.30
2014,07,06,07,21,15.40
2014,07,06,07,22,15.40
2014,07,06,07,23,15.40
2014,07,06,07,24,15.40
2014,07,06,07,25,15.40
2014,07,06,07,26,15.50
2014,07,06,07,27,15.50
2014,07,06,07,28,15.50
2014,07,06,07,29,15.50
2014,07,06,07,30,15.50
2014,07,06,07,31,15.50
2014,07,06,07,32,15.50
2014,07,06,07,33,15.50
2014,07,06,07,34,15.50
2014,07,06,07,35,15.50
2014,07,06,07,36,15.60
2014,07,06,07,37,15.60
2014,07,06,07,38,15.60
2014,07,06,07,39,15.70
2014,07,06,07,40,15.70
2014,07,06,07,41,15.80
2014,07,06,07,42,15.80
2014,07,06,07,43,15.80
2014,07,06,07,44,15.80
2014,07,06,07,45,15.80
2014,07,06,07,46,15.80
2014,07,06,07,47,15.80
2014,07,06,07,48,15.80
2014,07,06,07,49,15.80
2014,07,06,07,50,15.80
2014,07,06,07,51,15.90
2014,07,06,07,52,15.90
2014,07,06,07,53,15.90
2014,07,06,07,54,15.90
2014,07,06,07,55,15.90
2014,07,06,07,56,15.90
2014,07,06,07,57,15.90
2014,07,06,07,58,15.90
2014,07,06,07,59,15.90
2014,07,06,08,00,15.90
2014,07,06,08,01,15.90
2014,07,06,08,02,15.90
2014,07,06,08,03,15.90
2014,07,06,08,04,15.90
2014,07,06,08,05,15.90
2014,07,06,08,06,15.90
2014,07,06,08,07,15.90
2014,07,06,08,08,16.00
2014,07,06,08,09,16.10
2014,07,06,08,10,16.10
2014,07,06,08,11,16.10
2014,07,06,08,12,16.10
2014,07,06,08,13,16.10
2014,07,06,08,14,16.20
2014,07,06,08,15,16.20
2014,07,06,08,16,16.20
2014,07,06,08,17,16.20
2014,07,06,08,18,16.20
2014,07,06,08,19,16.20
2014,07,06,08,20,16.20
2014,07,06,08,21,16.20
2014,07,06,08,22,16.20
2014,07,06,08,23,16.20
2014,07,06,08,24,16.30
2014,07,06,08,25,16.30
2014,07,06,08,26,16.30
2014,07,06,08,27,16.30
2014,07,06,08,28,16.30
2014,07,06,08,29,16.30
2014,07,06,08,30,16.30
2014,07,06,08,31,16.30
2014,07,06,08,32,16.30
2014,07,06,08,33,16.40
2014,07,06,08,34,16.30
2014,07,06,08,35,16.40
2014,07,06,08,36,16.40
2014,07,06,08,37,16.30
2014,07,06,08,38,16.30
2014,07,06,08,39,16.20
2014,07,06,08,40,16.20
2014,07,06,08,41,16.20
2014,07,06,08,42,16.10
2014,07,06,08,43,16.10
2014,07,06,08,44,16.10
2014,07,06,08,45,16.00
2014,07,06,08,46,15.90
2014,07,06,08,47,15.80
2014,07,06,08,48,15.80
2014,07,06,08,49,15.90
2014,07,06,08,50,15.90
2014,07,06,08,51,15.80
2014,07,06,08,52,15.80
2014,07,06,08,53,15.70
2014,07,06,08,54,15.60
2014,07,06,08,55,15.50
2014,07,06,08,56,15.50
2014,07,06,08,57,15.40
2014,07,06,08,58,15.40
2014,07,06,08,59,15.40
2014,07,06,09,00,15.40
2014,07,06,09,01,15.40
2014,07,06,09,02,15.40
2014,07,06,09,03,15.40
2014,07,06,09,04,15.40
2014,07,06,09,05,15.40
2014,07,06,09,06,15.40
2014,07,06,09,07,15.50
2014,07,06,09,08,15.50
2014,07,06,09,09,15.50
2014,07,06,09,10,15.50
2014,07,06,09,11,15.50
2014,07,06,09,12,15.50
2014,07,06,09,13,15.60
2014,07,06,09,14,15.70
2014,07,06,09,15,15.70
2014,07,06,09,16,15.80
2014,07,06,09,17,15.80
2014,07,06,09,18,15.90
2014,07,06,09,19,16.10
2014,07,06,09,20,16.20
2014,07,06,09,21,16.20
2014,07,06,09,22,16.40
2014,07,06,09,23,16.50
2014,07,06,09,24,16.50
2014,07,06,09,25,16.40
2014,07,06,09,26,16.40
2014,07,06,09,27,16.40
2014,07,06,09,28,16.60
2014,07,06,09,29,16.60
2014,07,06,09,30,16.60
2014,07,06,09,31,16.70
2014,07,06,09,32,16.70
2014,07,06,09,33,16.70
2014,07,06,09,34,16.70
2014,07,06,09,35,16.70
2014,07,06,09,36,16.70
2014,07,06,09,37,16.70
2014,07,06,09,38,16.70
2014,07,06,09,39,16.70
2014,07,06,09,40,16.70
2014,07,06,09,41,16.70
2014,07,06,09,42,16.80
2014,07,06,09,43,16.70
2014,07,06,09,44,16.70
2014,07,06,09,45,16.80
2014,07,06,09,46,16.80
2014,07,06,09,47,16.80
2014,07,06,09,48,16.80
2014,07,06,09,49,16.70
2014,07,06,09,50,16.80
2014,07,06,09,51,16.80
2014,07,06,09,52,16.80
2014,07,06,09,53,16.80
2014,07,06,09,54,16.80
2014,07,06,09,55,16.80
2014,07,06,09,56,16.80
2014,07,06,09,57,16.80
2014,07,06,09,58,16.70
2014,07,06,09,59,16.70
2014,07,06,10,00,16.70
2014,07,06,10,01,16.70
2014,07,06,10,02,16.70
2014,07,06,10,03,16.60
2014,07,06,10,04,16.60
2014,07,06,10,05,16.60
2014,07,06,10,06,16.60
2014,07,06,10,07,16.50
2014,07,06,10,08,16.40
2014,07,06,10,09,16.40
2014,07,06,10,10,16.40
2014,07,06,10,11,16.40
2014,07,06,10,12,16.40
2014,07,06,10,13,16.40
2014,07,06,10,14,16.40
2014,07,06,10,15,16.50
2014,07,06,10,16,16.60
2014,07,06,10,17,16.70
2014,07,06,10,18,16.70
2014,07,06,10,19,16.70
2014,07,06,10,20,16.70
2014,07,06,10,21,16.70
2014,07,06,10,22,16.70
2014,07,06,10,23,16.80
2014,07,06,10,24,17.00
2014,07,06,10,25,17.20
2014,07,06,10,26,17.30
2014,07,06,10,27,17.50
2014,07,06,10,28,17.70
2014,07,06,10,29,17.80
2014,07,06,10,30,17.90
2014,07,06,10,31,17.80
2014,07,06,10,32,17.70
2014,07,06,10,33,17.70
2014,07,06,10,34,17.60
2014,07,06,10,35,17.50
2014,07,06,10,36,17.50
2014,07,06,10,37,17.60
2014,07,06,10,38,17.60
2014,07,06,10,39,17.60
2014,07,06,10,40,17.70
2014,07,06,10,41,17.70
2014,07,06,10,42,17.70
2014,07,06,10,43,17.70
2014,07,06,10,44,17.80
2014,07,06,10,45,17.80
2014,07,06,10,46,17.80
2014,07,06,10,47,17.80
2014,07,06,10,48,17.80
2014,07,06,10,49,17.80
2014,07,06,10,50,17.80
2014,07,06,10,51,17.80
2014,07,06,10,52,17.70
2014,07,06,10,53,17.70
2014,07,06,10,54,17.70
2014,07,06,10,55,17.80
2014,07,06,10,56,17.80
2014,07,06,10,57,17.80
2014,07,06,10,58,17.80
2014,07,06,10,59,17.90
2014,07,06,11,00,17.90
2014,07,06,11,01,17.90
2014,07,06,11,02,17.90
2014,07,06,11,03,17.90
2014,07,06,11,04,17.90
2014,07,06,11,05,17.90
2014,07,06,11,06,17.90
2014,07,06,11,07,17.90
2014,07,06,11,08,17.80
2014,07,06,11,09,17.70
2014,07,06,11,10,17.60
2014,07,06,11,11,17.50
2014,07,06,11,12,17.50
2014,07,06,11,13,17.40
2014,07,06,11,14,17.40
2014,07,06,11,15,17.50
2014,07,06,11,16,17.50
2014,07,06,11,17,17.40
2014,07,06,11,18,17.40
2014,07,06,11,19,17.40
2014,07,06,11,20,17.40
2014,07,06,11,21,17.30
2014,07,06,11,22,17.30
2014,07,06,11,23,17.30
2014,07,06,11,24,17.30
2014,07,06,11,25,17.30
2014,07,06,11,26,17.40
2014,07,06,11,27,17.40
2014,07,06,11,28,17.50
2014,07,06,11,29,17.50
2014,07,06,11,30,17.50
2014,07,06,11,31,17.60
2014,07,06,11,32,17.60
2014,07,06,11,33,17.60
2014,07,06,11,34,17.60
2014,07,06,11,35,17.60
2014,07,06,11,36,17.60
2014,07,06,11,37,17.60
2014,07,06,11,38,17.60
2014,07,06,11,39,17.70
2014,07,06,11,40,17.60
2014,07,06,11,41,17.60
2014,07,06,11,42,17.50
2014,07,06,11,43,17.50
2014,07,06,11,44,17.50
2014,07,06,11,45,17.40
2014,07,06,11,46,17.30
2014,07,06,11,47,17.20
2014,07,06,11,48,17.20
2014,07,06,11,49,17.20
2014,07,06,11,50,17.20
2014,07,06,11,51,17.20
2014,07,06,11,52,17.20
2014,07,06,11,53,17.20
2014,07,06,11,54,17.10
2014,07,06,11,55,17.10
2014,07,06,11,56,17.10
2014,07,06,11,57,17.10
2014,07,06,11,58,17.10
2014,07,06,11,59,17.00
2014,07,06,12,00,17.00
2014,07,06,12,01,17.00
2014,07,06,12,02,17.10
2014,07,06,12,03,17.10
2014,07,06,12,04,17.10
2014,07,06,12,05,17.10
2014,07,06,12,06,17.10
2014,07,06,12,07,17.10
2014,07,06,12,08,17.10
2014,07,06,12,09,17.10
2014,07,06,12,10,17.10
2014,07,06,12,11,17.20
2014,07,06,12,12,17.20
2014,07,06,12,13,17.20
2014,07,06,12,14,17.30
2014,07,06,12,15,17.30
2014,07,06,12,16,17.30
2014,07,06,12,17,17.40
2014,07,06,12,18,17.50
2014,07,06,12,19,17.50
2014,07,06,12,20,17.60
2014,07,06,12,21,17.70
2014,07,06,12,22,17.80
2014,07,06,12,23,17.90
2014,07,06,12,24,17.90
2014,07,06,12,25,17.90
2014,07,06,12,26,17.80
2014,07,06,12,27,17.80
2014,07,06,12,28,17.80
2014,07,06,12,29,17.90
2014,07,06,12,30,17.90
2014,07,06,12,31,17.90
2014,07,06,12,32,18.10
2014,07,06,12,33,18.20
2014,07,06,12,34,18.20
2014,07,06,12,35,18.20
2014,07,06,12,36,18.20
2014,07,06,12,37,18.20
2014,07,06,12,38,18.20
2014,07,06,12,39,18.20
2014,07,06,12,40,18.10
2014,07,06,12,41,18.10
2014,07,06,12,42,18.10
2014,07,06,12,43,18.10
2014,07,06,12,44,18.00
2014,07,06,12,45,18.10
2014,07,06,12,46,18.00
2014,07,06,12,47,17.90
2014,07,06,12,48,17.90
2014,07,06,12,49,17.90
2014,07,06,12,50,18.00
2014,07,06,12,51,18.10
2014,07,06,12,52,18.10
2014,07,06,12,53,18.20
2014,07,06,12,54,18.20
2014,07,06,12,55,18.20
2014,07,06,12,56,18.20
2014,07,06,12,57,18.20
2014,07,06,12,58,18.20
2014,07,06,12,59,18.00
2014,07,06,13,00,17.90
2014,07,06,13,01,17.90
2014,07,06,13,02,17.90
2014,07,06,13,03,17.80
2014,07,06,13,04,17.80
2014,07,06,13,05,17.70
2014,07,06,13,06,17.70
2014,07,06,13,07,17.70
2014,07,06,13,08,17.70
2014,07,06,13,09,17.70
2014,07,06,13,10,17.70
2014,07,06,13,11,17.80
2014,07,06,13,12,17.70
2014,07,06,13,13,17.70
2014,07,06,13,14,17.70
2014,07,06,13,15,17.60
2014,07,06,13,16,17.60
2014,07,06,13,17,17.60
2014,07,06,13,18,17.60
2014,07,06,13,19,17.60
2014,07,06,13,20,17.60
2014,07,06,13,21,17.70
2014,07,06,13,22,17.70
2014,07,06,13,23,17.70
2014,07,06,13,24,17.70
2014,07,06,13,25,17.70
2014,07,06,13,26,17.80
2014,07,06,13,27,17.90
2014,07,06,13,28,17.90
2014,07,06,13,29,17.90
2014,07,06,13,30,18.00
2014,07,06,13,31,18.10
2014,07,06,13,32,18.20
2014,07,06,13,33,18.20
2014,07,06,13,34,18.20
2014,07,06,13,35,18.30
2014,07,06,13,36,18.40
2014,07,06,13,37,18.50
2014,07,06,13,38,18.50
2014,07,06,13,39,18.60
2014,07,06,13,40,18.70
2014,07,06,13,41,18.80
2014,07,06,13,42,18.80
2014,07,06,13,43,18.90
2014,07,06,13,44,19.00
2014,07,06,13,45,19.10
2014,07,06,13,46,19.20
2014,07,06,13,47,19.40
2014,07,06,13,48,19.60
2014,07,06,13,49,19.70
2014,07,06,13,50,19.80
2014,07,06,13,51,20.00
2014,07,06,13,52,20.20
2014,07,06,13,53,20.30
2014,07,06,13,54,20.50
2014,07,06,13,55,20.60
2014,07,06,13,56,20.70
2014,07,06,13,57,20.70
2014,07,06,13,58,20.80
2014,07,06,13,59,21.00
2014,07,06,14,00,21.10
2014,07,06,14,01,21.20
2014,07,06,14,02,21.30
2014,07,06,14,03,21.30
2014,07,06,14,04,21.30
2014,07,06,14,05,21.30
2014,07,06,14,06,21.40
2014,07,06,14,07,21.50
2014,07,06,14,08,21.60
2014,07,06,14,09,21.60
2014,07,06,14,10,21.60
2014,07,06,14,11,21.60
2014,07,06,14,12,21.80
2014,07,06,14,13,21.90
2014,07,06,14,14,21.90
2014,07,06,14,15,22.00
2014,07,06,14,16,22.10
2014,07,06,14,17,22.20
2014,07,06,14,18,22.30
2014,07,06,14,19,22.40
2014,07,06,14,20,22.40
2014,07,06,14,21,22.30
2014,07,06,14,22,22.30
2014,07,06,14,23,22.30
2014,07,06,14,24,22.50
2014,07,06,14,25,22.60
2014,07,06,14,26,22.60
2014,07,06,14,27,22.60
2014,07,06,14,28,22.60
2014,07,06,14,29,22.60
2014,07,06,14,30,22.70
2014,07,06,14,31,22.60
2014,07,06,14,32,22.60
2014,07,06,14,33,22.50
2014,07,06,14,34,22.50
2014,07,06,14,35,22.50
2014,07,06,14,36,22.50
2014,07,06,14,37,22.60
2014,07,06,14,38,22.60
2014,07,06,14,39,22.70
2014,07,06,14,40,22.70
2014,07,06,14,41,22.70
2014,07,06,14,42,22.80
2014,07,06,14,43,22.90
2014,07,06,14,44,22.90
2014,07,06,14,45,22.90
2014,07,06,14,46,22.80
2014,07,06,14,47,22.80
2014,07,06,14,48,22.80
2014,07,06,14,49,22.80
2014,07,06,14,50,22.80
2014,07,06,14,51,22.70
2014,07,06,14,52,22.80
2014,07,06,14,53,22.80
2014,07,06,14,54,22.90
2014,07,06,14,55,22.90
2014,07,06,14,56,22.90
2014,07,06,14,57,22.90
2014,07,06,14,58,22.90
2014,07,06,14,59,22.90
2014,07,06,15,00,23.00
2014,07,06,15,01,23.10
2014,07,06,15,02,23.10
2014,07,06,15,03,23.00
2014,07,06,15,04,23.10
2014,07,06,15,05,23.20
2014,07,06,15,06,23.10
2014,07,06,15,07,23.10
2014,07,06,15,08,23.00
2014,07,06,15,09,22.90
2014,07,06,15,10,22.80
2014,07,06,15,11,22.70
2014,07,06,15,12,22.70
2014,07,06,15,13,22.70
2014,07,06,15,14,22.70
2014,07,06,15,15,22.70
2014,07,06,15,16,22.80
2014,07,06,15,17,22.90
2014,07,06,15,18,22.90
2014,07,06,15,19,22.90
2014,07,06,15,20,22.90
2014,07,06,15,21,23.00
2014,07,06,15,22,23.10
2014,07,06,15,23,23.10
2014,07,06,15,24,23.10
2014,07,06,15,25,23.10
2014,07,06,15,26,23.10
2014,07,06,15,27,23.10
2014,07,06,15,28,23.00
2014,07,06,15,29,22.90
2014,07,06,15,30,22.90
2014,07,06,15,31,22.90
2014,07,06,15,32,22.90
2014,07,06,15,33,23.00
2014,07,06,15,34,23.00
2014,07,06,15,35,22.90
2014,07,06,15,36,22.80
2014,07,06,15,37,22.80
2014,07,06,15,38,22.80
2014,07,06,15,39,22.80
2014,07,06,15,40,22.90
2014,07,06,15,41,22.90
2014,07,06,15,42,22.90
2014,07,06,15,43,22.80
2014,07,06,15,44,22.80
2014,07,06,15,45,22.90
2014,07,06,15,46,22.90
2014,07,06,15,47,22.90
2014,07,06,15,48,23.00
2014,07,06,15,49,23.10
2014,07,06,15,50,23.10
2014,07,06,15,51,23.10
2014,07,06,15,52,23.10
2014,07,06,15,53,23.20
2014,07,06,15,54,23.20
2014,07,06,15,55,23.30
2014,07,06,15,56,23.20
2014,07,06,15,57,23.30
2014,07,06,15,58,23.30
2014,07,06,15,59,23.30
2014,07,06,16,00,23.30
2014,07,06,16,01,23.30
2014,07,06,16,02,23.40
2014,07,06,16,03,23.40
2014,07,06,16,04,23.40
2014,07,06,16,05,23.40
2014,07,06,16,06,23.50
2014,07,06,16,07,23.60
2014,07,06,16,08,23.60
2014,07,06,16,09,23.60
2014,07,06,16,10,23.60
2014,07,06,16,11,23.60
2014,07,06,16,12,23.60
2014,07,06,16,13,23.60
2014,07,06,16,14,23.50
2014,07,06,16,15,23.40
2014,07,06,16,16,23.30
2014,07,06,16,17,23.30
2014,07,06,16,18,23.30
2014,07,06,16,19,23.30
2014,07,06,16,20,23.30
2014,07,06,16,21,23.30
2014,07,06,16,22,23.20
2014,07,06,16,23,23.10
2014,07,06,16,24,23.10
2014,07,06,16,25,23.20
2014,07,06,16,26,23.10
2014,07,06,16,27,23.10
2014,07,06,16,28,23.00
2014,07,06,16,29,22.90
2014,07,06,16,30,23.10
2014,07,06,16,31,23.10
2014,07,06,16,32,23.10
2014,07,06,16,33,23.10
2014,07,06,16,34,23.20
2014,07,06,16,35,23.30
2014,07,06,16,36,23.30
2014,07,06,16,37,23.30
2014,07,06,16,38,23.30
2014,07,06,16,39,23.30
2014,07,06,16,40,23.30
2014,07,06,16,41,23.20
2014,07,06,16,42,23.20
2014,07,06,16,43,23.10
2014,07,06,16,44,23.10
2014,07,06,16,45,23.10
2014,07,06,16,46,23.10
2014,07,06,16,47,23.10
2014,07,06,16,48,23.00
2014,07,06,16,49,22.90
2014,07,06,16,50,22.80
2014,07,06,16,51,22.70
2014,07,06,16,52,22.60
2014,07,06,16,53,22.50
2014,07,06,16,54,22.30
2014,07,06,16,55,22.10
2014,07,06,16,56,22.20
2014,07,06,16,57,22.20
2014,07,06,16,58,22.20
2014,07,06,16,59,22.30
2014,07,06,17,00,22.40
2014,07,06,17,01,22.40
2014,07,06,17,02,22.50
2014,07,06,17,03,22.50
2014,07,06,17,04,22.50
2014,07,06,17,05,22.60
2014,07,06,17,06,22.60
2014,07,06,17,07,22.70
2014,07,06,17,08,22.70
2014,07,06,17,09,22.70
2014,07,06,17,10,22.80
2014,07,06,17,11,22.80
2014,07,06,17,12,22.70
2014,07,06,17,13,22.70
2014,07,06,17,14,22.70
2014,07,06,17,15,22.60
2014,07,06,17,16,22.60
2014,07,06,17,17,22.60
2014,07,06,17,18,22.60
2014,07,06,17,19,22.50